Tracking 20241 objects as of 25-Jan-2020
HD Live streaming from Space Station
objects crossing your sky now

COSMOS 2251 DEB

Track COSMOS 2251 DEB now!
10-day predictions


NORAD ID: 33791
Int'l Code: 1993-036AG
Perigee: 764.0 km
Apogee: 808.2 km
Inclination: 74.2 °
Period: 100.4 minutes
Semi major axis: 7157 km
RCS: 0.2004 m2 (medium)
Launch date: June 16, 1993
Source: Commonwealth of Independent States (former USSR) (CIS)
Launch site: PLESETSK MISSILE AND SPACE COMPLEX (PKMTR)

Note: This is SATELLITE DEBRIS
aabbcc
Your satellite tracking list
Your tracking list is empty




NASA's NSSDC Master Catalog

Two Line Element Set (TLE):
1 33791U 93036AG  20024.36515826 +.00000171 +00000-0 +69983-4 0  9996
2 33791 074.1781 353.2991 0030848 068.8326 082.7809 14.33831610571873
Source of the keplerian elements: AFSPC